Regional Weather Roundup
Issued by NWS Charleston, SC

Current Version | Previous Version | Text Only | Print | Product List | Glossary Off
Versions: 1 2 3 4 5 6 7 8 9 10 11 12 13 14 15 16 17 18 19 20 21 22 23 24 25 26 27 28 29 30 31 32 33 34 35 36 37 38 39 40 41 42 43 44 45 46 47 48 49 50
856 ASUS42 KCHS 212027 RWRCHS REGIONAL WEATHER ROUNDUP NATIONAL WEATHER SERVICE CHARLESTON SC 400 PM EDT THU MAY 21 2015 NOTE: "FAIR" INDICATES FEW OR NO CLOUDS BELOW 12,000 FEET WITH NO SIGNIFICANT WEATHER AND/OR OBSTRUCTIONS TO VISIBILITY. NOT ALL STATIONS ARE QUALITY CONTROLLED BY THE NATIONAL WEATHER SERVICE. USE DATA WITH CAUTION...ESPECIALLY DEWPOINT OBSERVATIONS. SCZ027-030-031-034>040-042>050-212100- ...SOUTHEAST SOUTH CAROLINA... CITY SKY/WX TMP DP RH WIND PRES REMARKS N CHARLESTON MOSUNNY 90 64 42 NW13G20 29.81F HX 91 WATERFRONT PAR N/A 88 66 48 W9 29.79F HX 90 MOUNT PLEASANT FAIR 90 66 45 W13G18 29.80F HX 92 JOHNS ISLAND CLEAR 91 64 40 W14 29.81F HX 93 PINOPOLIS NOT AVBL MONCKS CORNER FAIR 90 64 43 W5 29.80F HX 91 SUMMERVILLE FAIR 91 64 40 W9 29.82S HX 93 BEAUFORT MCAS MOSUNNY 93 59 31 W14G22 29.83F HX 92 BEAUFORT ARPT FAIR 91 63 38 W18 29.83F HX 92 HILTON HEAD IS SUNNY 90 59 35 SW14G22 29.86S WALTERBORO CLEAR 90 55 31 W15G23 29.82F ALLENDALE FAIR 91 59 33 W8G16 29.83S HX 90 ...SOUTHERN MIDLANDS AND PEE DEE... CITY SKY/WX TMP DP RH WIND PRES REMARKS GEORGETOWN NOT AVBL KINGSTREE NOT AVBL ORANGEBURG MOSUNNY 90 61 37 W12 29.82F HX 90 BARNWELL FAIR 93 61 33 W13G21 29.84S HX 93 AIKEN FAIR 88 52 29 W17G25 29.88S MANNING FAIR 88 59 37 W9G16 29.79F COLUMBIA MOSUNNY 93 61 34 NW10 29.80F HX 93 SUMTER MOSUNNY 90 63 41 W14G20 29.78F HX 90 FLORENCE PTSUNNY 88 66 48 N12G20 29.76F HX 90 MYRTLE BEACH PTSUNNY 90 66 45 W17 29.77F HX 92 N MYRTLE BEACH PTSUNNY 82 73 74 SW22 29.75F $$ GAZ063-065-086>088-099>101-113>116-118-119-134>141-150-212100- ...SOUTHEAST GEORGIA... CITY SKY/WX TMP DP RH WIND PRES REMARKS SAVANNAH ARPT MOSUNNY 91 56 30 W15G25 29.86F HUNTER AAF SUNNY 93 61 33 W16G24 29.83F HX 93 FORT STEWART SUNNY 93 58 30 W13G22 29.85F HX 92 STATESBORO SUNNY 92 65 41 W14G20 29.87S HX 94 SYLVANIA CLEAR 93 61 34 W10G20 29.86F HX 93 CLAXTON FAIR 90 63 40 W10G17 29.87F HX 90 ...CSRA...CENTRAL AND FAR SOUTHEAST GEORGIA... CITY SKY/WX TMP DP RH WIND PRES REMARKS THOMSON SUNNY 88 62 41 W16 29.93S AUGUSTA-BUSH SUNNY 90 59 35 W12G23 29.84F AUGUSTA-DANIEL SUNNY 89 59 36 W10G20 29.87F SWAINSBORO FAIR 91 61 35 W13G23 29.89S HX 91 VIDALIA SUNNY 91 59 33 W12G17 29.89F HX 90 EASTMAN FAIR 91 62 36 W10 29.94S HX 91 HAZLEHURST FAIR 92 60 34 W7G17 29.89F HX 91 ALMA SUNNY 90 61 37 W10 29.90F HX 90 WAYCROSS SUNNY 93 64 37 W16 29.90F HX 94 JESUP FAIR 95 61 31 W13 29.89F HX 95 BAXLEY FAIR 93 63 36 W9 29.89F HX 94 BRUNSWICK SUNNY 93 54 26 W8G16 29.88F HX 91 SAINT SIMONS NOT AVBL $$ SCZ027-028-034-036>038-045-046-048>050-GAZ119-141-212100- ...LAKE AND SUPPLEMENTAL COASTAL OBSERVATIONS... STATION/POSITION TIME TEMP WIND PRES WAVE SWELL AIR SEA DIR/SP/G HT/PER HT/PER/DIR (UTC) (F) (DEG/KT/KT) (MB) (FT/S) (FT/S/D) UPR LAKE MARION NOT AVBL WINYAH BAY 1900 87 250/ 12 1007.0 LAKE MURRAY 1900 85 260/ 5/ 7 1009.5F ACE BASIN NERRS 1900 89 280/ 5 1011.0 FORT PULASKI 2000 88 79 270/ 18/ 22 1011.2F SAPELO ISLAND 2000 91 250/ 13 1012.0S $$ ANZ835-935-AMZ111-154-330-350-352-354-370-450-454-472-212100- ...C-MAN AND BUOY OBSERVATIONS... STATION/POSITION TIME TEMP WIND PRES WAVE SWELL AIR SEA DIR/SP/G HT/PER HT/PER/DIR (UTC) (F) (DEG/KT/KT) (MB) (FT/S) (FT/S/D) BUOY 41004 1950 77 76 230/ 17/ 21 1009.1F 4/ 5 2/ 8 BUOY 41008 1950 80 78 190/ 10/ 12 1012.0F 1/ 9 FOLLY BEACH CMAN 2000 89 270/ 10/ 15 1009.7F CAPERS NEARSHORE 1908 78 230/ 16/ 21 1009.7F FRIPP NEARSHORE 1900 84 280/ 12/ 12 1010.5F STATION/POSITION TIME TEMP WIND PRES WAVE SWELL AIR SEA DIR/SP/G HT/PER HT/PER/DIR (UTC) (F) (DEG/KT/KT) (MB) (FT/S) (FT/S/D) 5E ST. MARYS GA 1921 80 N/A 1/ 4 FRYING PAN BUOY 1950 79 77 210/ 16/ 19 1008.7F 3/ 5 2/100/ 8 BUOY 41025 1950 76 77 160/ 17/ 19 1008.6F 4/ 5 2/ 70/ 8 CAPE LOOKOUT NC 2000 76 170/ 13/ 13 1007.4F BUOY 41002 1950 75 75 210/ 12/ 14 1013.0F 3/ 5 2/ 80/ 9 BUOY 41010 1920 80 80 250/ 10/ 12 1014.8F ST AUGUSTINE FL 2000 90 72 260/ 8/ 12 1013.5F $$

USA.gov is the U.S. government's official web portal to all federal, state and local government web resources and services.